User: anonymous   Login
Location: Unspecified
(0.0000°N, 0.0000°E)
Time: 08:30:52
(UTC+02:00)
Language:

Ariane H10 - Orbit

View from above orbital plane
View from above orbital plane
View from above satellite
View from above satellite

Ground track
Ground track

The orbit data is extracted from the following two-line orbital elements,

1 19622U 88098B   16146.72562123  .00001261  00000-0  42698-3 0  9991
2 19622   3.8186  61.5494 6407066  98.2568 333.7111  3.42821029290971
Epoch (UTC): 25 May 2016 17:24:53
Eccentricity: 0.6407066
inclination: 3.8186°
perigee height: 297 km
apogee height: 24104 km
right ascension of ascending node: 61.5494°
argument of perigee: 98.2568°
revolutions per day: 3.42821029
mean anomaly at epoch: 333.7111°
orbit number at epoch: 29097

The dashed part of the orbit path shows where the satellite is in the earth's shadow,  

DLR